Weather in Malang

Indonesia     7°58′54″S   112°38′44″E
temp.,
°C
wind,
m/s
gust,
m/s
humid.,
%
clouds,
%
prec.,
mm/h
press.,
hPa
HPBL,
m
12 april, mon
mon1201:00+18e218840 0.4 101420
04:00+18ese11845 0.0 101422
07:00+22s127423 0.0 1015142
10:00+27sw335710 0.0 10141284
13:00+28sw335365 0.7 10111760
16:00+23ssw358531 2.3 1011458
19:00+20sse11976 3.0 101436
22:00+18se11958 0.0 101529
13 april, tue
tue1301:00+18ese12936 0.0 101430
04:00+18ese11902 0.0 101328
07:00+21sse12765 0.0 1014128
10:00+27sw335430 0.0 10141413
13:00+25s1374100 1.1 1011587
16:00+22sw239063 1.6 1011284
19:00+20s119829 2.1 101419
22:00+19ese119669 0.0 101517
14 april, wed
wed1401:00+18e11945 0.0 101316
04:00+18e1192100 0.0 101318
07:00+21se0184100 0.0 101489
10:00+26w2260100 0.0 10131263
13:00+26ssw126894 0.9 1010866
16:00+23sw138851 2.4 1011436
19:00+19s119823 2.9 101332
22:00+18e019857 0.1 101425
15 april, thu
thu1501:00+17ese119581 0.1 101318
04:00+17e119394 0.0 101318
07:00+19e118256 0.0 101479
10:00+27w225568 0.0 10131289
13:00+27sw225799 0.2 10101543
16:00+25n017276 0.8 1010618
19:00+20ene119693 2.2 101319
22:00+19ene119398 0.4 101413
16 april, fri
fri1601:00+18e119389 0.4 101317
04:00+18e1190100 0.0 101319
07:00+21ene1177100 0.0 101486
10:00+27w225027 0.0 10131427
13:00+27w2254100 0.3 10101645
16:00+23nnw1281100 1.3 1011178
19:00+20ne0197100 2.2 101414
22:00+19ene119633 0.2 101515